Regional Weather Roundup
Issued by NWS

Home | Current Version | Previous Version | Graphics & Text | Print | Product List | Glossary On
Versions: 1 2 3 4 5 6 7 8 9 10 11 12 13 14 15 16 17 18 19 20 21 22 23 24 25 26 27 28 29 30 31 32 33 34 35 36 37 38 39 40 41 42 43 44 45 46 47 48 49 50
676
ASUS44 KJAN 301910
RWRMS

MISSISSIPPI HOURLY WEATHER ROUNDUP
NATIONAL WEATHER SERVICE JACKSON MS
200 PM CDT THU OCT 30 2014

NOTE: "FAIR: INDICATES FEW OR NO CLOUDS BELOW 12,000 FEET WITH NO
SIGNIFICANT WEATHER AND/OR OBSTRUCTIONS TO VISIBILITY.

MSZ001>002-007>008-010>013-018>021-025>028-034>036-302000-
NORTHWEST MISSISSIPPI

CITY           SKY/WX    TMP DP  RH WIND       PRES   REMARKS
CLARKSDALE     FAIR      68  43  40 CALM      30.10F
CLEVELAND      FAIR      71  46  41 CALM      30.09F
GREENWOOD      SUNNY     69  43  38 VRB3      30.09F
GREENVILLE     SUNNY     70  43  37 S3        30.09F
GRENADA        FAIR      68  36  30 CALM      30.10F
OLIVE BRANCH   SUNNY     64  39  39 NE3       30.10F
OXFORD         FAIR      66  37  34 W7        30.11F
TUNICA         CLEAR     68  37  32 SW3       30.10F
$$

MSZ003>006-009-014>017-022>024-029>033-037>039-302000-
NORTHEAST MISSISSIPPI

CITY           SKY/WX    TMP DP  RH WIND       PRES   REMARKS
COLUMBUS AFB   SUNNY     67  34  29 N3        30.08F
CORINTH        FAIR      64  36  34 CALM      30.09F
GOLDN TRIANGLE SUNNY     70  30  23 N9        30.08F
STARKVILLE     FAIR      68  36  30 NE3       30.08F
TUPELO         SUNNY     66  37  34 VRB3      30.09F
$$

MSZ040-058-302000-
CENTRAL MISSISSIPPI

CITY           SKY/WX    TMP DP  RH WIND       PRES   REMARKS
JACKSON INTL   MOSUNNY   72  40  31 N8        30.09F
JACKSON HAWKNS SUNNY     72  40  31 VRB5      30.09F
MERIDIAN KEY   SUNNY     71  36  27 N6        30.07F
MERIDIAN NAS   SUNNY     69  34  27 N5        30.08F
RAYMOND        FAIR      73  68  83 NW6       30.09F
VICKSBURG      SUNNY     72  41  32 VRB5      30.10F
$$

MSZ059>079-302000-
SOUTH MISSISSIPPI

CITY           SKY/WX    TMP DP  RH WIND       PRES   REMARKS
BROOKHAVEN     FAIR      70  41  35 N7        30.10F
COLUMBIA         N/A     72  37  28 MISG      30.06F
HATTIESBURG    SUNNY     72  36  26 MISG      30.07F
MCCOMB         SUNNY     72  36  26 N3        30.07F
NATCHEZ        SUNNY     72  43  35 N10       30.10F
PINE BELT      SUNNY     72  36  26 N12       30.08F
$$

MSZ080>082-302000-
COASTAL MISSISSIPPI

CITY           SKY/WX    TMP DP  RH WIND       PRES   REMARKS
BAY ST LOUIS   SUNNY     73  34  23 N8        30.05F
BILOXI         SUNNY     73  42  33 N13       30.04F
PASCAGOULA     SUNNY     73  39  29 N12G21    30.03F
GULFPORT       SUNNY     73  42  32 NE12      30.03F
$$



USA.gov is the U.S. government's official web portal to all federal, state and local government web resources and services.